スキッフ彗星

P/2004 V1 ( Skiff )

English version
Home page
Updated on March 26, 2005

---------------------------------------------------------------------

・ プロフィール

発見日 2004年11月4日
発見光度 17.9等
発見者 B. Skiff (LONEOS)

・ 写真集

・ 軌道要素

Epoch 2004 Dec. 21.0 TT = JDT 2453360.5
T 2004 Dec. 8.86804 TT                                  MPC
q   1.4183525            (2000.0)            P               Q
n   0.09892068     Peri.  144.76408     +0.88076565     -0.43966589
a   4.6303235      Node   242.24240     +0.37591947     +0.87505618
e   0.6936818      Incl.   11.46619     +0.28798683     +0.20241191
P   9.96

・ 星図

・ 光度変化

        m1 = 12.2 + 5 logΔ + 30 log r(t - 20)

---------------------------------------------------------------------

軌道要素はM.P.E.C. 2004-Y12に掲載されたものです。
星図は StellaNavigator Ver.2.0 for Windows (アストロアーツ 編著 / アスキー出版局刊) で作成したものです。
光度グラフはComet for Windowsで作成したものです。

---------------------------------------------------------------------

Copyright(C) Seiichi Yoshida (comet@aerith.net). All rights reserved.